CFG4DE LFPG-EDDF

Flight info

Callsign CFG4DE
Flight time 1h 1m
Altitude 23000
Route RANUX DCT VALEK DCT LIPNI UN858 LIMGO Z111 RAMOB IMCOM1D
Aircraft A320/M-SDE3FGHIRWY/LB1

Departure

Time 2026-05-08 19:48
Airport Charles de Gaulle International Airport (LFPG)

Arrival

Time 2026-05-08 20:50
Airport Frankfurt Main Airport (EDDF)
Time Latitude Longitude Altitude Speed Heading
2026-05-08 19:04 49.00525 2.56183 354 ft 0 kts 166°
2026-05-08 19:04 49.00530 2.56181 354 ft 0 kts 166°
2026-05-08 19:07 49.00538 2.56270 354 ft 0 kts 185°
2026-05-08 19:29 49.00540 2.56270 354 ft 2 kts 185°
2026-05-08 19:30 49.00567 2.56274 356 ft 4 kts 185°
2026-05-08 19:30 49.00588 2.56277 360 ft 4 kts 180°
2026-05-08 19:30 49.00611 2.56267 356 ft 4 kts 122°
2026-05-08 19:30 49.00616 2.56232 354 ft 4 kts 85°
2026-05-08 19:31 49.00615 2.56214 354 ft 0 kts 85°
2026-05-08 19:34 49.00617 2.56256 360 ft 5 kts 85°
2026-05-08 19:34 49.00621 2.56312 355 ft 6 kts 85°
2026-05-08 19:35 49.00625 2.56377 359 ft 10 kts 77°
2026-05-08 19:35 49.00670 2.56447 357 ft 0 kts 18°
2026-05-08 19:35 49.00685 2.56452 357 ft 4 kts
2026-05-08 19:36 49.00720 2.56451 355 ft 0 kts 357°
2026-05-08 19:36 49.00721 2.56451 355 ft 0 kts 357°
2026-05-08 19:36 49.00740 2.56449 355 ft 5 kts 355°
2026-05-08 19:37 49.00800 2.56381 355 ft 16 kts 296°
2026-05-08 19:37 49.00794 2.56210 363 ft 17 kts 262°
2026-05-08 19:37 49.00774 2.56007 360 ft 22 kts 261°
2026-05-08 19:37 49.00751 2.55755 351 ft 24 kts 263°
2026-05-08 19:38 49.00733 2.55529 361 ft 18 kts 263°
2026-05-08 19:38 49.00728 2.55395 355 ft 11 kts 282°
2026-05-08 19:38 49.00781 2.55326 355 ft 11 kts 342°
2026-05-08 19:38 49.00880 2.55281 357 ft 17 kts 344°
2026-05-08 19:39 49.00999 2.55230 355 ft 19 kts 344°
2026-05-08 19:39 49.01130 2.55174 355 ft 19 kts 344°
2026-05-08 19:39 49.01260 2.55192 357 ft 20 kts 21°
2026-05-08 19:39 49.01399 2.55192 355 ft 21 kts 346°
2026-05-08 19:40 49.01551 2.55157 358 ft 23 kts 356°
2026-05-08 19:40 49.01713 2.55141 358 ft 24 kts 356°
2026-05-08 19:40 49.01827 2.55124 355 ft 13 kts 339°
2026-05-08 19:40 49.01858 2.55021 355 ft 10 kts 266°
2026-05-08 19:41 49.01856 2.54975 355 ft 0 kts 266°
2026-05-08 19:41 49.01852 2.54906 355 ft 9 kts 265°
2026-05-08 19:41 49.01848 2.54816 355 ft 8 kts 264°
2026-05-08 19:41 49.01837 2.54642 354 ft 26 kts 265°
2026-05-08 19:42 49.01821 2.54353 354 ft 28 kts 265°
2026-05-08 19:42 49.01808 2.54106 354 ft 25 kts 265°
2026-05-08 19:42 49.01793 2.53828 360 ft 27 kts 265°
2026-05-08 19:42 49.01777 2.53545 357 ft 25 kts 265°
2026-05-08 19:43 49.01763 2.53286 354 ft 19 kts 265°
2026-05-08 19:43 49.01752 2.53086 354 ft 18 kts 266°
2026-05-08 19:43 49.01743 2.52900 356 ft 17 kts 265°
2026-05-08 19:43 49.01734 2.52736 354 ft 16 kts 265°
2026-05-08 19:44 49.01723 2.52516 354 ft 24 kts 265°
2026-05-08 19:44 49.01710 2.52279 354 ft 22 kts 265°
2026-05-08 19:44 49.01751 2.52142 357 ft 13 kts 345°
2026-05-08 19:44 49.01839 2.52129 355 ft 13 kts 355°
2026-05-08 19:45 49.01936 2.52117 361 ft 13 kts 355°
2026-05-08 19:45 49.01987 2.52112 354 ft 0 kts 357°
2026-05-08 19:47 49.01989 2.52111 354 ft 2 kts 357°
2026-05-08 19:47 49.02052 2.52109 354 ft 12 kts
2026-05-08 19:47 49.02110 2.52195 357 ft 13 kts 76°
2026-05-08 19:47 49.02112 2.52222 353 ft 1 kts 84°
2026-05-08 19:48 49.02126 2.52468 356 ft 60 kts 85°
2026-05-08 19:48 49.02179 2.53459 360 ft 125 kts 85°
2026-05-08 19:48 49.02263 2.55027 480 ft 160 kts 84°
2026-05-08 19:48 49.02336 2.56683 1254 ft 158 kts 85°
2026-05-08 19:49 49.02418 2.58390 1843 ft 170 kts 84°
2026-05-08 19:49 49.02522 2.60299 2193 ft 191 kts 85°
2026-05-08 19:49 49.02635 2.62441 2548 ft 214 kts 85°
2026-05-08 19:49 49.02763 2.64857 2923 ft 243 kts 85°
2026-05-08 19:50 49.02902 2.67495 3655 ft 256 kts 86°
2026-05-08 19:50 49.03038 2.70239 4582 ft 262 kts 86°
2026-05-08 19:50 49.03176 2.73022 5535 ft 266 kts 86°
2026-05-08 19:50 49.03318 2.75851 6474 ft 271 kts 87°
2026-05-08 19:51 49.03466 2.78742 7330 ft 277 kts 87°
2026-05-08 19:51 49.03611 2.81719 8138 ft 285 kts 86°
2026-05-08 19:51 49.03752 2.84754 8985 ft 291 kts 86°
2026-05-08 19:51 49.03894 2.87854 9779 ft 297 kts 87°
2026-05-08 19:52 49.04044 2.91026 10050 ft 301 kts 86°
2026-05-08 19:52 49.04214 2.94327 10431 ft 322 kts 85°
2026-05-08 19:52 49.04453 2.97858 10714 ft 346 kts 84°
2026-05-08 19:52 49.04742 3.01595 11063 ft 365 kts 84°
2026-05-08 19:53 49.05056 3.05477 11738 ft 371 kts 83°
2026-05-08 19:53 49.05371 3.09412 12502 ft 376 kts 84°
2026-05-08 19:53 49.05678 3.13391 13262 ft 380 kts 84°
2026-05-08 19:53 49.06008 3.17408 13997 ft 384 kts 79°
2026-05-08 19:54 49.06690 3.21359 14661 ft 387 kts 74°
2026-05-08 19:54 49.07429 3.25325 15358 ft 390 kts 74°
2026-05-08 19:54 49.08173 3.29309 16046 ft 393 kts 74°
2026-05-08 19:54 49.08917 3.33298 16724 ft 396 kts 74°
2026-05-08 19:55 49.09670 3.37354 17397 ft 399 kts 74°
2026-05-08 19:55 49.10429 3.41449 18078 ft 402 kts 74°
2026-05-08 19:55 49.11193 3.45592 18678 ft 406 kts 74°
2026-05-08 19:55 49.11960 3.49755 19261 ft 408 kts 73°
2026-05-08 19:56 49.12728 3.53937 19823 ft 411 kts 73°
2026-05-08 19:56 49.13503 3.58162 20379 ft 415 kts 73°
2026-05-08 19:56 49.14283 3.62415 20912 ft 418 kts 72°
2026-05-08 19:56 49.15071 3.66713 21419 ft 421 kts 72°
2026-05-08 19:57 49.15861 3.71041 21942 ft 424 kts 72°
2026-05-08 19:57 49.16656 3.75409 22449 ft 427 kts 72°
2026-05-08 19:57 49.17451 3.79797 22914 ft 430 kts 72°
2026-05-08 19:57 49.18251 3.84205 23050 ft 436 kts 72°
2026-05-08 19:58 49.19072 3.88740 23069 ft 447 kts 72°
2026-05-08 19:58 49.19902 3.93344 23062 ft 452 kts 72°
2026-05-08 19:58 49.20737 3.97997 23063 ft 453 kts 72°
2026-05-08 19:58 49.21566 4.02639 23059 ft 453 kts 72°
2026-05-08 19:59 49.22394 4.07280 23058 ft 452 kts 72°
2026-05-08 19:59 49.23220 4.11929 23056 ft 452 kts 72°
2026-05-08 19:59 49.24044 4.16563 23058 ft 451 kts 72°
2026-05-08 19:59 49.24865 4.21190 23058 ft 451 kts 73°
2026-05-08 20:00 49.25691 4.25853 23059 ft 451 kts 73°
2026-05-08 20:00 49.26514 4.30394 23057 ft 450 kts 70°
2026-05-08 20:00 49.27644 4.34833 23065 ft 448 kts 66°
2026-05-08 20:00 49.28829 4.39267 23068 ft 448 kts 66°
2026-05-08 20:01 49.30013 4.43689 23076 ft 448 kts 66°
2026-05-08 20:01 49.31198 4.48103 23079 ft 448 kts 66°
2026-05-08 20:01 49.32383 4.52524 23087 ft 448 kts 66°
2026-05-08 20:01 49.33564 4.56943 23091 ft 448 kts 66°
2026-05-08 20:02 49.34742 4.61357 23099 ft 448 kts 66°
2026-05-08 20:02 49.35920 4.65783 23092 ft 448 kts 67°
2026-05-08 20:02 49.37094 4.70207 23088 ft 448 kts 67°
2026-05-08 20:02 49.38269 4.74642 23090 ft 448 kts 67°
2026-05-08 20:03 49.39441 4.79068 23091 ft 447 kts 67°
2026-05-08 20:03 49.40611 4.83496 23091 ft 448 kts 67°
2026-05-08 20:03 49.41779 4.87924 23094 ft 448 kts 67°
2026-05-08 20:03 49.42943 4.92361 23096 ft 446 kts 68°
2026-05-08 20:04 49.44063 4.96782 23099 ft 446 kts 69°
2026-05-08 20:04 49.45104 5.01287 23092 ft 448 kts 71°
2026-05-08 20:04 49.46060 5.05812 23085 ft 437 kts 72°
2026-05-08 20:04 49.46928 5.10141 23097 ft 423 kts 72°
2026-05-08 20:05 49.47791 5.14504 23095 ft 419 kts 72°
2026-05-08 20:05 49.48637 5.18736 23104 ft 419 kts 72°
2026-05-08 20:05 49.49509 5.22998 23100 ft 419 kts 72°
2026-05-08 20:05 49.50387 5.27272 23101 ft 419 kts 72°
2026-05-08 20:06 49.51292 5.31540 23096 ft 419 kts 70°
2026-05-08 20:06 49.52307 5.35728 23098 ft 419 kts 68°
2026-05-08 20:06 49.53413 5.39880 23104 ft 419 kts 66°
2026-05-08 20:06 49.54170 5.42615 23105 ft 419 kts 66°
2026-05-08 20:07 49.55330 5.46759 23098 ft 420 kts 66°
2026-05-08 20:07 49.56473 5.50889 23101 ft 420 kts 66°
2026-05-08 20:07 49.57595 5.55028 23100 ft 420 kts 67°
2026-05-08 20:07 49.58704 5.59196 23098 ft 420 kts 67°
2026-05-08 20:08 49.59798 5.63370 23096 ft 420 kts 68°
2026-05-08 20:08 49.60882 5.67550 23094 ft 420 kts 68°
2026-05-08 20:08 49.61961 5.71720 23096 ft 420 kts 68°
2026-05-08 20:08 49.63047 5.75907 23094 ft 420 kts 68°
2026-05-08 20:09 49.64135 5.80092 23098 ft 420 kts 68°
2026-05-08 20:09 49.65221 5.84275 23090 ft 420 kts 68°
2026-05-08 20:09 49.66306 5.88455 23095 ft 420 kts 68°
2026-05-08 20:09 49.67401 5.92668 23093 ft 420 kts 68°
2026-05-08 20:10 49.68487 5.96859 23093 ft 420 kts 68°
2026-05-08 20:10 49.69569 6.01044 23090 ft 420 kts 68°
2026-05-08 20:10 49.70650 6.05246 23092 ft 420 kts 68°
2026-05-08 20:10 49.71725 6.09434 23096 ft 420 kts 68°
2026-05-08 20:11 49.72805 6.13650 23094 ft 420 kts 68°
2026-05-08 20:11 49.73868 6.17796 23095 ft 420 kts 68°
2026-05-08 20:11 49.74943 6.21988 23097 ft 420 kts 68°
2026-05-08 20:11 49.76020 6.26197 23092 ft 421 kts 68°
2026-05-08 20:12 49.77093 6.30401 23094 ft 421 kts 68°
2026-05-08 20:12 49.78170 6.34633 23099 ft 421 kts 68°
2026-05-08 20:12 49.79240 6.38849 23090 ft 421 kts 69°
2026-05-08 20:12 49.80309 6.43080 23087 ft 421 kts 69°
2026-05-08 20:13 49.81375 6.47305 23090 ft 421 kts 69°
2026-05-08 20:13 49.82440 6.51530 23090 ft 422 kts 69°
2026-05-08 20:13 49.83512 6.55788 22882 ft 423 kts 69°
2026-05-08 20:13 49.84577 6.60029 22329 ft 419 kts 69°
2026-05-08 20:14 49.85628 6.64211 21788 ft 415 kts 69°
2026-05-08 20:14 49.86677 6.68391 21269 ft 416 kts 69°
2026-05-08 20:14 49.87719 6.72545 20758 ft 412 kts 69°
2026-05-08 20:14 49.88748 6.76672 20249 ft 408 kts 69°
2026-05-08 20:15 49.89764 6.80755 19750 ft 404 kts 69°
2026-05-08 20:15 49.90772 6.84809 19263 ft 401 kts 69°
2026-05-08 20:15 49.91771 6.88833 18782 ft 398 kts 69°
2026-05-08 20:15 49.92763 6.92861 18289 ft 396 kts 69°
2026-05-08 20:16 49.93740 6.96828 17745 ft 393 kts 69°
2026-05-08 20:16 49.94704 7.00733 17276 ft 389 kts 69°
2026-05-08 20:16 49.95655 7.04583 17103 ft 376 kts 69°
2026-05-08 20:16 49.96566 7.08275 17139 ft 358 kts 69°
2026-05-08 20:17 49.97435 7.11807 17135 ft 342 kts 69°
2026-05-08 20:17 49.98265 7.15188 17136 ft 331 kts 69°
2026-05-08 20:17 49.99081 7.18527 16916 ft 328 kts 69°
2026-05-08 20:17 49.99888 7.21826 16653 ft 325 kts 69°
2026-05-08 20:18 50.00688 7.25105 16386 ft 324 kts 70°
2026-05-08 20:18 50.01486 7.28377 16130 ft 322 kts 70°
2026-05-08 20:18 50.02275 7.31619 15881 ft 321 kts 70°
2026-05-08 20:18 50.03067 7.34875 15630 ft 320 kts 70°
2026-05-08 20:19 50.03852 7.38105 15377 ft 318 kts 70°
2026-05-08 20:19 50.04632 7.41320 15130 ft 317 kts 70°
2026-05-08 20:19 50.05410 7.44540 14850 ft 316 kts 70°
2026-05-08 20:19 50.06173 7.47702 14525 ft 314 kts 70°
2026-05-08 20:20 50.06927 7.50830 14400 ft 305 kts 70°
2026-05-08 20:20 50.07660 7.53882 14273 ft 296 kts 70°
2026-05-08 20:20 50.08369 7.56835 14155 ft 288 kts 70°
2026-05-08 20:20 50.09063 7.59720 14034 ft 280 kts 70°
2026-05-08 20:21 50.09722 7.62559 13834 ft 276 kts 74°
2026-05-08 20:21 50.10260 7.65418 13546 ft 274 kts 75°
2026-05-08 20:21 50.10704 7.68281 13236 ft 271 kts 86°
2026-05-08 20:21 50.10603 7.71192 12939 ft 268 kts 104°
2026-05-08 20:22 50.10067 7.73959 12624 ft 267 kts 109°
2026-05-08 20:22 50.09511 7.76727 12323 ft 267 kts 108°
2026-05-08 20:22 50.08981 7.79491 12019 ft 266 kts 105°
2026-05-08 20:22 50.08654 7.82308 11719 ft 266 kts 94°
2026-05-08 20:23 50.08854 7.85157 11406 ft 266 kts 76°
2026-05-08 20:23 50.09338 7.87884 11154 ft 265 kts 73°
2026-05-08 20:23 50.09922 7.90617 11127 ft 266 kts 71°
2026-05-08 20:23 50.10543 7.93334 11130 ft 267 kts 70°
2026-05-08 20:24 50.11176 7.96062 11132 ft 267 kts 70°
2026-05-08 20:24 50.11807 7.98804 11127 ft 268 kts 71°
2026-05-08 20:24 50.12431 8.01546 11130 ft 268 kts 71°
2026-05-08 20:24 50.13048 8.04282 11130 ft 268 kts 71°
2026-05-08 20:25 50.13659 8.07017 11127 ft 267 kts 71°
2026-05-08 20:25 50.14244 8.09678 11130 ft 253 kts 71°
2026-05-08 20:25 50.14792 8.12199 11121 ft 238 kts 72°
2026-05-08 20:25 50.15309 8.14578 11137 ft 222 kts 72°
2026-05-08 20:26 50.15793 8.16797 11146 ft 213 kts 72°
2026-05-08 20:26 50.16266 8.18964 11126 ft 210 kts 72°
2026-05-08 20:26 50.16735 8.21120 11123 ft 210 kts 72°
2026-05-08 20:26 50.17203 8.23279 11125 ft 210 kts 72°
2026-05-08 20:27 50.17669 8.25432 11127 ft 210 kts 72°
2026-05-08 20:27 50.18129 8.27559 11127 ft 210 kts 72°
2026-05-08 20:27 50.18594 8.29717 11130 ft 210 kts 72°
2026-05-08 20:27 50.19058 8.31876 11131 ft 210 kts 72°
2026-05-08 20:28 50.19521 8.34034 11125 ft 210 kts 72°
2026-05-08 20:28 50.19984 8.36192 11130 ft 210 kts 72°
2026-05-08 20:28 50.20445 8.38348 11128 ft 210 kts 72°
2026-05-08 20:28 50.20910 8.40518 11132 ft 210 kts 72°
2026-05-08 20:29 50.21373 8.42686 11124 ft 209 kts 72°
2026-05-08 20:29 50.21829 8.44821 10854 ft 208 kts 72°
2026-05-08 20:29 50.22285 8.46960 10540 ft 208 kts 72°
2026-05-08 20:29 50.22738 8.49099 10243 ft 207 kts 72°
2026-05-08 20:30 50.23189 8.51237 9935 ft 207 kts 72°
2026-05-08 20:30 50.23638 8.53374 9609 ft 205 kts 72°
2026-05-08 20:30 50.24080 8.55482 9285 ft 204 kts 72°
2026-05-08 20:30 50.24519 8.57582 8974 ft 203 kts 72°
2026-05-08 20:31 50.24953 8.59669 8668 ft 201 kts 72°
2026-05-08 20:31 50.25399 8.61817 8032 ft 218 kts 72°
2026-05-08 20:31 50.25885 8.64162 7352 ft 235 kts 72°
2026-05-08 20:31 50.26348 8.66669 7139 ft 245 kts 82°
2026-05-08 20:32 50.26204 8.69309 7135 ft 247 kts 110°
2026-05-08 20:32 50.25283 8.71546 7134 ft 246 kts 140°
2026-05-08 20:32 50.23827 8.72804 7132 ft 243 kts 168°
2026-05-08 20:32 50.22141 8.72850 7137 ft 241 kts 196°
2026-05-08 20:33 50.20679 8.71714 7134 ft 238 kts 223°
2026-05-08 20:33 50.19690 8.69666 7140 ft 237 kts 244°
2026-05-08 20:33 50.18941 8.67368 7138 ft 238 kts 244°
2026-05-08 20:33 50.18186 8.65062 7133 ft 238 kts 243°
2026-05-08 20:34 50.17428 8.62764 7138 ft 238 kts 243°
2026-05-08 20:34 50.16666 8.60463 7136 ft 238 kts 243°
2026-05-08 20:34 50.15143 8.55865 7138 ft 239 kts 243°
2026-05-08 20:35 50.14376 8.53560 7043 ft 239 kts 243°
2026-05-08 20:35 50.13609 8.51260 6912 ft 238 kts 243°
2026-05-08 20:35 50.12849 8.48976 6706 ft 234 kts 243°
2026-05-08 20:35 50.12100 8.46715 6585 ft 236 kts 243°
2026-05-08 20:36 50.11361 8.44420 6452 ft 237 kts 246°
2026-05-08 20:36 50.10757 8.42074 6318 ft 236 kts 250°
2026-05-08 20:36 50.10182 8.39678 6191 ft 236 kts 250°
2026-05-08 20:36 50.09598 8.37260 6058 ft 233 kts 250°
2026-05-08 20:37 50.09030 8.34918 5933 ft 235 kts 250°
2026-05-08 20:37 50.08446 8.32503 5805 ft 247 kts 250°
2026-05-08 20:37 50.07841 8.30005 5668 ft 241 kts 249°
2026-05-08 20:37 50.07259 8.27598 5538 ft 237 kts 249°
2026-05-08 20:38 50.06677 8.25204 5409 ft 237 kts 249°
2026-05-08 20:38 50.06093 8.22808 5286 ft 237 kts 249°
2026-05-08 20:38 50.05502 8.20399 5162 ft 237 kts 249°
2026-05-08 20:38 50.04915 8.18011 5057 ft 237 kts 249°
2026-05-08 20:39 50.04328 8.15618 5027 ft 237 kts 249°
2026-05-08 20:39 50.03741 8.13219 5025 ft 238 kts 249°
2026-05-08 20:39 50.03153 8.10807 5029 ft 238 kts 249°
2026-05-08 20:39 50.02597 8.08521 5027 ft 235 kts 249°
2026-05-08 20:40 50.02042 8.06229 5023 ft 219 kts 249°
2026-05-08 20:40 50.01505 8.04027 5022 ft 217 kts 249°
2026-05-08 20:40 50.00968 8.01835 5026 ft 217 kts 249°
2026-05-08 20:40 50.00316 7.99727 5031 ft 216 kts 229°
2026-05-08 20:41 49.99104 7.98424 5027 ft 215 kts 198°
2026-05-08 20:41 49.97635 7.98301 5028 ft 214 kts 169°
2026-05-08 20:41 49.96207 7.98947 5023 ft 213 kts 148°
2026-05-08 20:41 49.95186 8.00440 5032 ft 195 kts 127°
2026-05-08 20:42 49.94420 8.02081 5042 ft 184 kts 124°
2026-05-08 20:42 49.93704 8.03702 5018 ft 180 kts 123°
2026-05-08 20:42 49.93265 8.05498 5022 ft 180 kts 95°
2026-05-08 20:42 49.93449 8.07401 5026 ft 180 kts 70°
2026-05-08 20:43 49.93894 8.09211 5024 ft 180 kts 69°
2026-05-08 20:43 49.94342 8.11030 5025 ft 180 kts 69°
2026-05-08 20:43 49.94788 8.12850 5026 ft 180 kts 69°
2026-05-08 20:43 49.95225 8.14640 5029 ft 180 kts 69°
2026-05-08 20:44 49.95674 8.16482 5000 ft 181 kts 69°
2026-05-08 20:44 49.96110 8.18278 4845 ft 180 kts 70°
2026-05-08 20:44 49.96555 8.20115 4633 ft 179 kts 70°
2026-05-08 20:44 49.96980 8.21900 4387 ft 178 kts 70°
2026-05-08 20:45 49.97419 8.23692 4103 ft 177 kts 69°
2026-05-08 20:45 49.97719 8.24892 3899 ft 175 kts 70°
2026-05-08 20:45 49.98292 8.27240 3573 ft 170 kts 70°
2026-05-08 20:45 49.98696 8.28903 3323 ft 164 kts 70°
2026-05-08 20:46 49.99095 8.30550 3072 ft 161 kts 70°
2026-05-08 20:46 49.99489 8.32165 2916 ft 158 kts 70°
2026-05-08 20:46 49.99878 8.33775 2676 ft 158 kts 70°
2026-05-08 20:46 50.00256 8.35368 2429 ft 157 kts 71°
2026-05-08 20:47 50.00637 8.36954 2196 ft 156 kts 70°
2026-05-08 20:47 50.01031 8.38568 1988 ft 167 kts 69°
2026-05-08 20:47 50.01440 8.40195 1730 ft 155 kts 69°
2026-05-08 20:47 50.01685 8.41216 1525 ft 147 kts 70°
2026-05-08 20:48 50.02020 8.42646 1310 ft 136 kts 69°
2026-05-08 20:48 50.02347 8.44009 1146 ft 133 kts 70°
2026-05-08 20:48 50.02661 8.45361 992 ft 132 kts 68°
2026-05-08 20:48 50.02983 8.46699 801 ft 131 kts 67°
2026-05-08 20:49 50.03294 8.48023 597 ft 129 kts 68°
2026-05-08 20:49 50.03613 8.49329 425 ft 129 kts 66°
2026-05-08 20:49 50.03915 8.50602 328 ft 117 kts 67°
2026-05-08 20:49 50.04153 8.51576 335 ft 74 kts 69°
2026-05-08 20:50 50.04233 8.51958 341 ft 22 kts 81°
2026-05-08 20:50 50.04222 8.52288 353 ft 31 kts 101°
2026-05-08 20:50 50.04198 8.52516 351 ft 19 kts 98°
2026-05-08 20:50 50.04210 8.52718 354 ft 19 kts 70°
2026-05-08 20:51 50.04241 8.52848 363 ft 10 kts 70°
2026-05-08 20:51 50.04274 8.52985 360 ft 24 kts 68°
2026-05-08 20:51 50.04347 8.53286 371 ft 24 kts 72°
2026-05-08 20:51 50.04386 8.53452 377 ft 15 kts 71°
2026-05-08 20:52 50.04397 8.53547 379 ft 7 kts 84°
2026-05-08 20:52 50.04403 8.53631 379 ft 13 kts 84°
2026-05-08 20:52 50.04420 8.53884 380 ft 31 kts 84°
2026-05-08 20:52 50.04441 8.54214 380 ft 31 kts 84°
2026-05-08 20:53 50.04444 8.54526 376 ft 27 kts 105°
2026-05-08 20:53 50.04358 8.54725 364 ft 17 kts 142°
2026-05-08 20:53 50.04302 8.54777 361 ft 19 kts 156°
2026-05-08 20:53 50.04173 8.54850 359 ft 17 kts 159°
2026-05-08 20:54 50.04044 8.54925 355 ft 18 kts 161°
2026-05-08 20:54 50.04023 8.55039 364 ft 19 kts 70°
2026-05-08 20:54 50.04063 8.55206 359 ft 17 kts 62°
2026-05-08 20:54 50.04115 8.55421 360 ft 25 kts 70°
2026-05-08 20:55 50.04175 8.55672 364 ft 21 kts 69°
2026-05-08 20:55 50.04213 8.55828 364 ft 13 kts 69°
2026-05-08 20:55 50.04245 8.55965 364 ft 14 kts 70°
2026-05-08 20:55 50.04285 8.56125 366 ft 17 kts 69°
2026-05-08 20:56 50.04326 8.56302 366 ft 18 kts 70°
2026-05-08 20:56 50.04371 8.56493 366 ft 19 kts 71°
2026-05-08 20:56 50.04365 8.56554 366 ft 0 kts 127°
2026-05-08 20:56 50.04341 8.56577 363 ft 10 kts 155°
2026-05-08 20:57 50.04293 8.56605 364 ft 0 kts 159°
2026-05-08 20:57 50.04285 8.56610 362 ft 7 kts 158°
2026-05-08 20:58 50.04235 8.56657 364 ft 1 kts 127°
2026-05-08 20:58 50.04232 8.56709 364 ft 12 kts 80°
2026-05-08 20:58 50.04296 8.56811 365 ft 14 kts 16°
2026-05-08 20:58 50.04363 8.56834 363 ft 0 kts 11°
2026-05-08 21:05 50.04381 8.56839 366 ft 9 kts 11°
2026-05-08 21:05 50.04466 8.56859 364 ft 14 kts 11°
2026-05-08 21:05 50.04556 8.56892 364 ft 11 kts 14°
2026-05-08 21:05 50.04622 8.56918 364 ft 10 kts 15°
2026-05-08 21:06 50.04685 8.56957 365 ft 11 kts 26°
2026-05-08 21:06 50.04725 8.57011 366 ft 5 kts 116°
2026-05-08 21:06 50.04712 8.57045 367 ft 3 kts 112°
2026-05-08 21:06 50.04703 8.57075 364 ft 3 kts 114°
2026-05-08 21:07 50.04699 8.57088 370 ft 0 kts 114°
2026-05-08 21:07 50.04697 8.57095 369 ft 0 kts 115°